[[{"header":{"parameterUnit":"m.s-1","parameterCategory":2,"la1":30.2991,"la2":30.254,"lo1":-89.0895,"lo2":-89.0444,"dy":0.0017,"dx":0.0017,"nx":28,"ny":28,"refTime":"2024-03-22T09:00:00:Z","depth":"0","parameterNumber":2,"parameterNumberName":"U-component_of_CURRENTS"},"data":[0,0,0,0,0,0,0,0,0,0,0,0,0,0,0,0,0,0,0,0,0,0,0,0,0,0,0,0,0,0,0,0,0,0,0,0,0,0,0,0,0,0,0,0,0,0,0,0,0,0,0,0,0,0,0,0,0,0,-0.2389,-0.2389,0,-0.243,-0.2431,-0.2431,-0.2439,-0.2439,-0.2439,-0.2438,-0.2538,-0.254,-0.2543,0,0,0,0,0,0,0,0,0,0,0,0,0,-0.2323,-0.2324,-0.2389,-0.2389,-0.239,-0.243,-0.2431,-0.2431,-0.2439,-0.2439,-0.2438,-0.2438,-0.2537,-0.254,-0.2544,0,0,0,0,0,0,0,0,0,0,0,0,0,-0.2356,-0.2324,-0.2389,-0.2399,-0.24,-0.243,-0.2431,-0.2432,-0.2439,-0.2439,-0.2438,-0.2438,-0.2536,-0.254,-0.2544,-0.2579,0,0,-0.2557,-0.2559,0,0,0,0,0,0,0,0,-0.2354,-0.2358,-0.2397,-0.2398,-0.24,-0.243,-0.2444,-0.2484,-0.2439,-0.2424,-0.2438,-0.2438,-0.2508,-0.2514,-0.2521,-0.2584,-0.2588,-0.2558,-0.256,-0.2562,-0.2563,0,0,0,0,0,0,0,-0.2352,-0.2357,-0.2405,-0.2398,-0.24,-0.2404,-0.2408,-0.2451,-0.2468,-0.2425,-0.2426,-0.2432,-0.2509,-0.2517,-0.2524,-0.259,-0.2558,-0.2561,-0.2564,-0.2566,-0.2637,-0.2637,0,0,0,0,0,0,-0.2348,-0.2355,-0.2403,-0.2406,-0.2376,-0.2406,-0.241,-0.242,-0.2466,-0.2473,-0.2432,-0.2432,-0.251,-0.2519,-0.2527,-0.2546,-0.2562,-0.2566,-0.2569,-0.2638,-0.2637,-0.2637,0,0,0,0,0,0,-0.2347,-0.2352,-0.2402,-0.2381,-0.2388,-0.2407,-0.2418,-0.2421,-0.2429,-0.2471,-0.2478,-0.2437,-0.251,-0.2521,-0.2547,-0.2551,-0.2568,-0.2572,-0.2639,-0.2638,-0.2637,-0.26,0,0,0,0,0,0,-0.2345,-0.2352,-0.2355,-0.2381,-0.2389,-0.2422,-0.2419,-0.2422,-0.2434,-0.2434,-0.2478,-0.2487,-0.251,-0.254,-0.2551,-0.2557,-0.2576,-0.264,-0.2639,-0.2637,-0.2602,-0.2598,-0.2594,0,0,0,0,0,-0.2342,-0.2353,-0.2355,-0.236,-0.2394,-0.2422,-0.2427,-0.2438,-0.2434,-0.2443,-0.2454,-0.2485,-0.2539,-0.2543,-0.2557,-0.2564,-0.2641,-0.2639,-0.2637,-0.2604,-0.2599,-0.2594,0,0,0,0,0,0,-0.2328,-0.2356,-0.2358,-0.2377,-0.2397,-0.2424,-0.2433,-0.2439,-0.2455,-0.2454,-0.2484,-0.2494,-0.2514,-0.2542,-0.2545,-0.2576,-0.2593,-0.2594,-0.2563,-0.2559,-0.2555,-0.2559,-0.2579,0,0,0,0,0,-0.2325,-0.2339,-0.2366,-0.238,-0.2391,-0.241,-0.2421,-0.2431,-0.245,-0.2456,-0.248,-0.2502,-0.2519,-0.254,-0.2562,-0.2592,-0.259,-0.2601,-0.2597,-0.2594,-0.2604,-0.2575,-0.2569,-0.2631,-0.2631,-0.2631,0,0,-0.2323,-0.234,-0.2348,-0.2377,-0.2393,-0.2419,-0.2416,-0.2437,-0.2453,-0.2467,-0.249,-0.2493,-0.2521,-0.2539,-0.2552,-0.2565,-0.2572,-0.2592,-0.2589,-0.2601,-0.2572,-0.2566,-0.2561,-0.263,-0.263,-0.2631,0,0,-0.2337,-0.2342,-0.2364,-0.2383,-0.241,-0.2422,-0.2428,-0.2453,-0.2456,-0.2479,-0.2476,-0.2472,-0.2525,-0.2524,-0.2536,-0.2528,-0.2546,-0.254,-0.2536,-0.2507,-0.2502,-0.2497,-0.2474,-0.2468,-0.2544,-0.2544,-0.2544,0,-0.2332,-0.236,-0.2374,-0.2404,-0.2415,-0.2425,-0.2449,-0.2462,-0.2487,-0.2484,-0.2485,-0.2499,-0.2516,-0.252,-0.2509,-0.2521,-0.251,-0.2553,-0.2501,-0.2497,-0.2493,-0.2471,-0.2464,-0.2542,-0.2542,-0.2543,-0.2543,0,-0.2366,-0.2387,-0.2401,-0.2438,-0.2455,-0.2473,-0.2494,-0.2501,-0.25,-0.2505,-0.25,-0.2498,-0.2504,-0.2502,-0.251,-0.2489,-0.2491,-0.2493,-0.2513,-0.2484,-0.2463,-0.2457,-0.2539,-0.254,-0.2541,-0.2541,0,0,-0.2342,-0.2412,-0.2411,-0.2428,-0.2467,-0.248,-0.2507,-0.252,-0.2521,-0.2525,-0.2519,-0.2517,-0.2496,-0.2506,-0.2496,-0.2474,-0.2423,-0.2474,-0.2474,-0.2452,-0.2361,-0.2314,-0.2303,-0.2414,-0.2413,-0.2412,-0.2354,0,-0.2355,-0.2407,-0.2439,-0.2473,-0.2493,-0.2511,-0.2531,-0.2543,-0.2545,-0.2542,-0.252,-0.2515,-0.2505,-0.2492,-0.2466,-0.244,-0.2408,-0.2439,-0.2394,-0.2393,-0.2354,-0.2295,-0.2224,-0.2162,-0.2348,-0.2347,-0.2347,0,-0.2362,-0.2393,-0.2431,-0.2475,-0.2484,-0.2504,-0.2511,-0.2536,-0.2542,-0.2541,-0.2527,-0.2516,-0.2485,-0.2474,-0.2412,-0.2433,-0.2395,-0.237,-0.2367,-0.2336,-0.2334,-0.2224,-0.2144,-0.2143,-0.2337,-0.2338,-0.2339,0,-0.2309,-0.2376,-0.2398,-0.2414,-0.2472,-0.2478,-0.2501,-0.252,-0.2527,-0.2532,-0.253,-0.2501,-0.2476,-0.2432,-0.2382,-0.2394,-0.231,-0.2318,-0.2238,-0.2235,-0.2174,-0.2167,-0.209,-0.226,-0.226,-0.2261,-0.2261,0,-0.2289,-0.2301,-0.2372,-0.2377,-0.2387,-0.2443,-0.2445,-0.247,-0.2495,-0.2492,-0.2514,-0.2492,-0.2462,-0.2417,-0.2376,-0.2283,-0.2298,-0.2225,-0.2209,-0.2158,-0.215,-0.2148,-0.2162,-0.2258,-0.2259,-0.2259,-0.226,0,-0.2216,-0.2272,-0.2293,-0.2348,-0.2361,-0.2362,-0.2409,-0.2413,-0.2456,-0.2453,-0.2454,-0.2468,-0.241,-0.2375,-0.2299,-0.226,-0.2145,-0.2151,-0.2097,-0.2074,-0.2,-0.2014,-0.1903,-0.1851,-0.2052,-0.205,-0.2049,0,-0.2183,-0.2186,-0.2242,-0.2248,-0.2268,-0.2287,-0.2299,-0.2367,-0.2382,-0.2423,-0.2415,-0.2386,-0.2342,-0.2236,-0.2154,-0.2065,-0.206,-0.196,-0.1963,-0.197,-0.1975,-0.1975,-0.1941,-0.1866,-0.1863,-0.1861,-0.1859,0,-0.2091,-0.2112,-0.2128,-0.2145,-0.2161,-0.2177,-0.2209,-0.2218,-0.2293,-0.2305,-0.2305,-0.2281,-0.2207,-0.2086,-0.1989,-0.1928,-0.1914,-0.1909,-0.1922,-0.182,-0.181,-0.1761,-0.1947,-0.1839,-0.1841,-0.1842,-0.1844,-0.1844,-0.2001,-0.1993,-0.2015,-0.2015,-0.204,-0.2039,-0.2006,-0.2065,-0.2068,-0.2063,-0.2132,-0.2079,-0.2036,-0.1887,-0.1834,-0.173,-0.1747,-0.1687,-0.1703,-0.1704,-0.1648,-0.1792,-0.1666,-0.1667,-0.1668,-0.1668,-0.1669,0,-0.188,-0.1884,-0.1882,-0.188,-0.1848,-0.1904,-0.1916,-0.187,-0.1833,-0.1888,-0.1869,-0.1845,-0.174,-0.1719,-0.1622,-0.1555,-0.1522,-0.1523,-0.1519,-0.1492,-0.1617,-0.1604,-0.1452,-0.1452,-0.1452,-0.1452,-0.1452,-0.1452,-0.1815,-0.1772,-0.1772,-0.1672,-0.1668,-0.158,-0.1554,-0.1527,-0.154,-0.1508,-0.1528,-0.1587,-0.1578,-0.1644,-0.155,-0.1482,-0.145,-0.139,-0.1409,-0.1532,-0.1549,-0.1566,-0.1558,-0.1399,-0.1399,-0.1242,-0.1241,-0.124]},{"header":{"parameterUnit":"m.s-1","parameterCategory":2,"la1":30.2991,"la2":30.254,"lo1":-89.0895,"lo2":-89.0444,"dy":0.0017,"dx":0.0017,"nx":28,"ny":28,"refTime":"2024-03-22T09:00:00:Z","depth":"0","parameterNumber":3,"parameterNumberName":"V-component_of_CURRENTS"},"data":[0,0,0,0,0,0,0,0,0,0,0,0,0,0,0,0,0,0,0,0,0,0,0,0,0,0,0,0,0,0,0,0,0,0,0,0,0,0,0,0,0,0,0,0,0,0,0,0,0,0,0,0,0,0,0,0,0,0,-0.0382,-0.0382,0,-0.0352,-0.0351,-0.0351,-0.0309,-0.0309,-0.0308,-0.0308,-0.0147,-0.0144,-0.014,0,0,0,0,0,0,0,0,0,0,0,0,0,-0.0372,-0.0372,-0.0382,-0.0382,-0.0382,-0.0352,-0.0351,-0.0351,-0.031,-0.0309,-0.0308,-0.0308,-0.0149,-0.0144,-0.014,0,0,0,0,0,0,0,0,0,0,0,0,0,-0.0361,-0.0372,-0.0382,-0.0359,-0.0356,-0.0352,-0.0351,-0.0351,-0.031,-0.0309,-0.0308,-0.0307,-0.015,-0.0145,-0.0139,-0.0121,0,0,-0.0122,-0.0119,0,0,0,0,0,0,0,0,-0.0362,-0.0361,-0.0362,-0.036,-0.0358,-0.0335,-0.0289,-0.0268,-0.031,-0.0326,-0.0308,-0.0307,-0.02,-0.019,-0.0186,-0.0113,-0.0106,-0.0121,-0.0118,-0.0115,-0.0114,0,0,0,0,0,0,0,-0.0362,-0.0362,-0.0368,-0.0362,-0.0359,-0.0339,-0.0336,-0.0285,-0.0264,-0.0324,-0.0322,-0.0321,-0.0197,-0.0191,-0.0181,-0.0104,-0.0121,-0.0116,-0.0113,-0.0111,-0.0003,-0.0003,0,0,0,0,0,0,-0.0372,-0.0363,-0.0369,-0.0368,-0.0359,-0.034,-0.0337,-0.0342,-0.0267,-0.0257,-0.0322,-0.0319,-0.0201,-0.0188,-0.0175,-0.0143,-0.0115,-0.011,-0.0107,-0.0002,-0.0003,-0.0003,0,0,0,0,0,0,-0.0372,-0.0373,-0.0371,-0.0365,-0.0364,-0.0341,-0.0347,-0.0342,-0.0335,-0.0267,-0.0253,-0.032,-0.02,-0.0183,-0.0144,-0.0136,-0.0108,-0.0102,-0.0002,-0.0002,-0.0003,-0.008,0,0,0,0,0,0,-0.0372,-0.0374,-0.0379,-0.0366,-0.0365,-0.0372,-0.0347,-0.0342,-0.0336,-0.0333,-0.0261,-0.0245,-0.0198,-0.0153,-0.0138,-0.0128,-0.0098,-0.0001,-0.0002,-0.0003,-0.0077,-0.0084,-0.0089,0,0,0,0,0,-0.0372,-0.0384,-0.0379,-0.038,-0.0373,-0.0373,-0.037,-0.0349,-0.0337,-0.0339,-0.0299,-0.0248,-0.0148,-0.0149,-0.0132,-0.0119,-0.0,-0.0002,-0.0003,-0.0074,-0.0082,-0.0089,0,0,0,0,0,0,-0.0382,-0.0381,-0.0375,-0.0386,-0.0382,-0.0366,-0.0368,-0.0355,-0.0328,-0.032,-0.0257,-0.0239,-0.0205,-0.0155,-0.0158,-0.0093,-0.0064,-0.0062,-0.0124,-0.0131,-0.0137,-0.0134,-0.0093,0,0,0,0,0,-0.0389,-0.0398,-0.0392,-0.0401,-0.0402,-0.0387,-0.0383,-0.0372,-0.0348,-0.0336,-0.0291,-0.0239,-0.0197,-0.0161,-0.0121,-0.0079,-0.0036,-0.006,-0.0066,-0.0072,-0.0059,-0.0008,-0.0008,-0.0007,-0.0007,-0.0007,0,0,-0.0396,-0.0397,-0.0401,-0.0404,-0.0399,-0.0407,-0.0382,-0.0384,-0.0381,-0.032,-0.0301,-0.0263,-0.0197,-0.0162,-0.0139,-0.0115,-0.0053,-0.0073,-0.0078,-0.0061,-0.0009,-0.0009,-0.0009,-0.0008,-0.0008,-0.0008,0,0,-0.0423,-0.0417,-0.0437,-0.0437,-0.0436,-0.0423,-0.0427,-0.0416,-0.04,-0.0383,-0.0342,-0.0304,-0.0238,-0.019,-0.0156,-0.0167,-0.0099,-0.0152,-0.0161,-0.0113,-0.0112,-0.0111,-0.0074,-0.0069,-0.0141,-0.0141,-0.0141,0,-0.0432,-0.0456,-0.0442,-0.0462,-0.0462,-0.0435,-0.0453,-0.0435,-0.0411,-0.0392,-0.0383,-0.0298,-0.0248,-0.0191,-0.0199,-0.0178,-0.0145,-0.014,-0.0121,-0.0118,-0.0116,-0.0078,-0.0071,-0.0145,-0.0144,-0.0144,-0.0144,0,-0.0478,-0.0492,-0.0504,-0.0517,-0.0512,-0.0524,-0.05,-0.0489,-0.0466,-0.044,-0.0395,-0.0339,-0.028,-0.0263,-0.023,-0.0184,-0.0166,-0.0148,-0.0103,-0.012,-0.008,-0.0071,-0.015,-0.0149,-0.0148,-0.0147,0,0,-0.0517,-0.0534,-0.0541,-0.055,-0.0543,-0.0546,-0.0533,-0.0511,-0.0495,-0.0458,-0.043,-0.0366,-0.0329,-0.0288,-0.0242,-0.0193,-0.0159,-0.0163,-0.0159,-0.0128,-0.0059,-0.0019,-0.0006,-0.0139,-0.0138,-0.0137,-0.0045,0,-0.0561,-0.061,-0.0598,-0.0626,-0.0646,-0.0606,-0.0596,-0.0564,-0.0525,-0.0489,-0.0416,-0.0375,-0.0339,-0.0312,-0.026,-0.0183,-0.0137,-0.0186,-0.0044,-0.004,-0.0003,0.0005,0.0038,0.0126,-0.0037,-0.0035,-0.0034,0,-0.0619,-0.064,-0.0684,-0.0679,-0.0682,-0.0684,-0.0651,-0.0637,-0.0567,-0.0534,-0.047,-0.0413,-0.033,-0.0309,-0.0172,-0.0206,-0.0138,-0.008,-0.0075,0.0002,0.0018,0.0122,0.0148,0.0256,-0.002,-0.0021,-0.0022,0,-0.067,-0.0698,-0.0732,-0.0737,-0.0727,-0.0724,-0.0708,-0.0653,-0.0634,-0.0559,-0.0531,-0.0428,-0.0373,-0.0273,-0.0147,-0.0159,-0.0001,-0.0002,0.0098,0.0101,0.0181,0.0189,0.0333,0.009,0.009,0.0089,0.0089,0,-0.0729,-0.0753,-0.0761,-0.0781,-0.0803,-0.0773,-0.0773,-0.0738,-0.0683,-0.0652,-0.0559,-0.0503,-0.0361,-0.025,-0.0149,0.0011,0.0003,0.0109,0.0136,0.0152,0.0156,0.0296,0.0331,0.0093,0.0092,0.0091,0.0091,0,-0.0786,-0.0794,-0.083,-0.0833,-0.0834,-0.0851,-0.0829,-0.0823,-0.0761,-0.0717,-0.0694,-0.0552,-0.0395,-0.0248,-0.0072,0.0016,0.023,0.0209,0.0215,0.0241,0.0427,0.0454,0.0629,0.069,0.0334,0.0335,0.0337,0,-0.082,-0.0849,-0.0878,-0.0904,-0.0908,-0.0923,-0.0929,-0.0875,-0.0857,-0.0739,-0.0716,-0.0552,-0.0415,-0.0137,0.0051,0.0248,0.0318,0.0378,0.0367,0.046,0.0511,0.052,0.0558,0.0433,0.0435,0.0437,0.0438,0,-0.0875,-0.0886,-0.0917,-0.0975,-0.0997,-0.1018,-0.1013,-0.1004,-0.0925,-0.0856,-0.0722,-0.0598,-0.0311,-0.004,0.0214,0.032,0.0462,0.0419,0.0527,0.0619,0.063,0.0693,0.0336,0.0454,0.0452,0.0451,0.045,0.0449,-0.0906,-0.0948,-0.0991,-0.1039,-0.1071,-0.1093,-0.1094,-0.1056,-0.1001,-0.0858,-0.0735,-0.0505,-0.012,0.0263,0.0384,0.0651,0.0603,0.0725,0.0755,0.0757,0.0815,0.0486,0.0626,0.0625,0.0625,0.0624,0.0624,0,-0.0948,-0.0992,-0.1049,-0.1103,-0.1142,-0.1141,-0.1132,-0.1097,-0.1012,-0.0837,-0.0669,-0.0211,0.0154,0.0475,0.0861,0.0986,0.0992,0.1042,0.1068,0.1093,0.0825,0.0829,0.1006,0.1006,0.1006,0.1006,0.1006,0.1006,-0.097,-0.1036,-0.1067,-0.1143,-0.1178,-0.1196,-0.1182,-0.1098,-0.0965,-0.0654,-0.0368,-0.013,0.0349,0.0966,0.1293,0.1297,0.139,0.1373,0.1425,0.1244,0.1216,0.1189,0.1203,0.1456,0.1457,0.1684,0.1687,0.1689]}],[{"header":{"parameterUnit":"m.s-1","parameterCategory":2,"la1":30.2991,"la2":30.254,"lo1":-89.0895,"lo2":-89.0444,"dy":0.0017,"dx":0.0017,"nx":28,"ny":28,"refTime":"2024-03-22T09:00:00:Z","depth":"2","parameterNumber":2,"parameterNumberName":"U-component_of_CURRENTS"},"data":[0,0,0,0,0,0,0,0,0,0,0,0,0,0,0,0,0,0,0,0,0,0,0,0,0,0,0,0,0,0,0,0,0,0,0,0,0,0,0,0,0,0,0,0,0,0,0,0,0,0,0,0,0,0,0,0,0,0,-0.2185,-0.2185,0,-0.2219,-0.222,-0.222,-0.2228,-0.2228,-0.2228,-0.2228,-0.2299,-0.2301,-0.2303,0,0,0,0,0,0,0,0,0,0,0,0,0,-0.2133,-0.2134,-0.2185,-0.2185,-0.2186,-0.2219,-0.222,-0.222,-0.2228,-0.2228,-0.2228,-0.2228,-0.2299,-0.2301,-0.2303,0,0,0,0,0,0,0,0,0,0,0,0,0,-0.216,-0.2134,-0.2185,-0.2194,-0.2196,-0.2219,-0.222,-0.222,-0.2228,-0.2228,-0.2228,-0.2227,-0.2298,-0.2301,-0.2304,-0.2328,0,0,-0.2313,-0.2315,0,0,0,0,0,0,0,0,-0.2158,-0.2161,-0.2192,-0.2194,-0.2195,-0.222,-0.2228,-0.2258,-0.2228,-0.2215,-0.2228,-0.2227,-0.2277,-0.2282,-0.2287,-0.2332,-0.2335,-0.2314,-0.2315,-0.2317,-0.2318,0,0,0,0,0,0,0,-0.2156,-0.216,-0.2198,-0.2193,-0.2195,-0.2199,-0.2203,-0.2233,-0.2247,-0.2216,-0.2217,-0.2222,-0.2278,-0.2284,-0.2289,-0.2336,-0.2314,-0.2316,-0.2318,-0.2319,-0.2381,-0.2381,0,0,0,0,0,0,-0.2153,-0.2158,-0.2197,-0.2199,-0.2176,-0.22,-0.2204,-0.2212,-0.2246,-0.2251,-0.2222,-0.2222,-0.2279,-0.2285,-0.2292,-0.2312,-0.2317,-0.232,-0.2322,-0.2381,-0.2381,-0.2381,0,0,0,0,0,0,-0.2152,-0.2157,-0.2195,-0.218,-0.2185,-0.2202,-0.221,-0.2212,-0.2222,-0.225,-0.2256,-0.223,-0.2279,-0.2287,-0.2312,-0.2315,-0.2321,-0.2324,-0.2381,-0.2381,-0.2381,-0.236,0,0,0,0,0,0,-0.2151,-0.2156,-0.2159,-0.218,-0.2186,-0.2214,-0.221,-0.2213,-0.2226,-0.2226,-0.2259,-0.2265,-0.2279,-0.2307,-0.2315,-0.232,-0.2326,-0.2382,-0.2381,-0.2381,-0.2361,-0.2359,-0.2358,0,0,0,0,0,-0.2149,-0.2158,-0.2159,-0.2164,-0.219,-0.2214,-0.2218,-0.2228,-0.2227,-0.2235,-0.2247,-0.2264,-0.2309,-0.2309,-0.2319,-0.2325,-0.2382,-0.2381,-0.2381,-0.2362,-0.236,-0.2358,0,0,0,0,0,0,-0.2138,-0.216,-0.2162,-0.2177,-0.2195,-0.2216,-0.2225,-0.2231,-0.2247,-0.2248,-0.2267,-0.2275,-0.2294,-0.2313,-0.2312,-0.2339,-0.2347,-0.2348,-0.2329,-0.2327,-0.2325,-0.2327,-0.2329,0,0,0,0,0,-0.2137,-0.2148,-0.217,-0.2182,-0.2191,-0.2208,-0.2218,-0.2227,-0.2244,-0.225,-0.2269,-0.2286,-0.23,-0.2315,-0.2332,-0.2357,-0.235,-0.2364,-0.2362,-0.236,-0.2367,-0.2341,-0.2337,-0.2379,-0.2379,-0.2379,0,0,-0.2135,-0.2149,-0.2155,-0.218,-0.2194,-0.2217,-0.2214,-0.2234,-0.2249,-0.2258,-0.2281,-0.2284,-0.2303,-0.2319,-0.2331,-0.2337,-0.2344,-0.236,-0.2358,-0.2366,-0.234,-0.2335,-0.2332,-0.2379,-0.2379,-0.2379,0,0,-0.2149,-0.2152,-0.2171,-0.2188,-0.2213,-0.2223,-0.223,-0.2253,-0.2257,-0.2281,-0.2278,-0.2277,-0.2319,-0.2316,-0.2324,-0.2325,-0.2332,-0.2336,-0.2336,-0.231,-0.2306,-0.2303,-0.2282,-0.2277,-0.2339,-0.2339,-0.2339,0,-0.2146,-0.2169,-0.218,-0.2207,-0.2218,-0.2228,-0.2251,-0.2264,-0.2288,-0.2287,-0.2289,-0.2303,-0.2314,-0.2318,-0.2313,-0.2322,-0.2311,-0.2343,-0.2307,-0.2303,-0.23,-0.228,-0.2275,-0.2338,-0.2338,-0.2338,-0.2338,0,-0.2176,-0.2195,-0.2208,-0.2241,-0.2258,-0.2275,-0.2295,-0.2304,-0.2307,-0.2312,-0.2312,-0.231,-0.2315,-0.2314,-0.232,-0.2303,-0.2303,-0.2302,-0.2311,-0.2294,-0.2274,-0.2269,-0.2336,-0.2337,-0.2337,-0.2337,0,0,-0.2154,-0.2217,-0.2217,-0.2234,-0.2271,-0.2283,-0.231,-0.2324,-0.2328,-0.2336,-0.2333,-0.2334,-0.2317,-0.2323,-0.2314,-0.2294,-0.2254,-0.2293,-0.2292,-0.227,-0.22,-0.2153,-0.2142,-0.2246,-0.2245,-0.2245,-0.2193,0,-0.2166,-0.2213,-0.2243,-0.2276,-0.2295,-0.2314,-0.2334,-0.2348,-0.2353,-0.2354,-0.2336,-0.2335,-0.2326,-0.2317,-0.2294,-0.2269,-0.2242,-0.2269,-0.2222,-0.2221,-0.2178,-0.2135,-0.1975,-0.1911,-0.2187,-0.2187,-0.2186,0,-0.2172,-0.22,-0.2238,-0.2279,-0.2289,-0.231,-0.232,-0.2345,-0.2355,-0.2358,-0.2349,-0.2341,-0.2316,-0.2305,-0.2249,-0.2269,-0.2234,-0.221,-0.2207,-0.2169,-0.2163,-0.1974,-0.1891,-0.2177,-0.2178,-0.2179,-0.2179,0,-0.2123,-0.2186,-0.2208,-0.2224,-0.228,-0.2289,-0.2312,-0.2333,-0.2343,-0.2353,-0.2355,-0.2332,-0.2311,-0.2272,-0.2226,-0.2236,-0.216,-0.2166,-0.2088,-0.2084,-0.1943,-0.1928,-0.2113,-0.2113,-0.2113,-0.2114,-0.2114,0,-0.2104,-0.2118,-0.2185,-0.2191,-0.2204,-0.2259,-0.2265,-0.2291,-0.2319,-0.2318,-0.2344,-0.2325,-0.2301,-0.226,-0.2221,-0.2133,-0.215,-0.2077,-0.206,-0.1931,-0.1917,-0.2151,-0.2156,-0.2112,-0.2112,-0.2112,-0.2113,0,-0.2038,-0.2091,-0.2112,-0.2167,-0.2181,-0.2185,-0.2234,-0.224,-0.2285,-0.2286,-0.2289,-0.2306,-0.2253,-0.2222,-0.2152,-0.2113,-0.2046,-0.2009,-0.1865,-0.1833,-0.1993,-0.1998,-0.1918,-0.1916,-0.1914,-0.1912,-0.1911,0,-0.2007,-0.2012,-0.2066,-0.2074,-0.2095,-0.2117,-0.2131,-0.2199,-0.2214,-0.2258,-0.2251,-0.2228,-0.2184,-0.2085,-0.1995,-0.1907,-0.1973,-0.1731,-0.1719,-0.1977,-0.197,-0.1978,-0.1985,-0.1519,-0.1515,-0.1511,-0.1508,0,-0.1922,-0.1944,-0.196,-0.1979,-0.1997,-0.2013,-0.2046,-0.2055,-0.213,-0.2141,-0.2141,-0.2117,-0.2037,-0.1866,-0.177,-0.1704,-0.1737,-0.1655,-0.193,-0.1607,-0.16,-0.1594,-0.1614,-0.1476,-0.1479,-0.1482,-0.1483,-0.1485,-0.184,-0.1832,-0.1855,-0.1858,-0.1884,-0.1882,-0.185,-0.1902,-0.1903,-0.1879,-0.1953,-0.1853,-0.1826,-0.1581,-0.149,-0.141,-0.1531,-0.146,-0.1471,-0.1486,-0.1463,-0.1454,-0.1298,-0.13,-0.1302,-0.1304,-0.1305,0,-0.1725,-0.1731,-0.1731,-0.1729,-0.1698,-0.1756,-0.1766,-0.1705,-0.166,-0.1667,-0.1632,-0.1432,-0.1325,-0.1297,-0.1121,-0.1104,-0.1094,-0.1062,-0.1041,-0.1073,-0.1102,-0.1059,-0.0787,-0.0786,-0.0784,-0.0783,0,0,-0.1665,-0.1623,-0.1622,-0.1528,-0.1527,-0.1438,-0.1412,-0.1354,-0.1324,-0.1214,-0.1151,-0.122,-0.1253,-0.1013,-0.0963,-0.0844,-0.0951,-0.0802,-0.1214,-0.122,-0.1247,-0.1323,-0.1293,0,0,0,0,0]},{"header":{"parameterUnit":"m.s-1","parameterCategory":2,"la1":30.2991,"la2":30.254,"lo1":-89.0895,"lo2":-89.0444,"dy":0.0017,"dx":0.0017,"nx":28,"ny":28,"refTime":"2024-03-22T09:00:00:Z","depth":"2","parameterNumber":3,"parameterNumberName":"V-component_of_CURRENTS"},"data":[0,0,0,0,0,0,0,0,0,0,0,0,0,0,0,0,0,0,0,0,0,0,0,0,0,0,0,0,0,0,0,0,0,0,0,0,0,0,0,0,0,0,0,0,0,0,0,0,0,0,0,0,0,0,0,0,0,0,-0.0392,-0.0392,0,-0.0365,-0.0364,-0.0364,-0.0323,-0.0323,-0.0322,-0.0322,-0.0173,-0.017,-0.0166,0,0,0,0,0,0,0,0,0,0,0,0,0,-0.0377,-0.0378,-0.0392,-0.0392,-0.0392,-0.0365,-0.0364,-0.0364,-0.0323,-0.0323,-0.0322,-0.0322,-0.0174,-0.017,-0.0166,0,0,0,0,0,0,0,0,0,0,0,0,0,-0.0369,-0.0378,-0.0392,-0.037,-0.0367,-0.0365,-0.0364,-0.0364,-0.0324,-0.0323,-0.0322,-0.0321,-0.0176,-0.0171,-0.0165,-0.015,0,0,-0.015,-0.0147,0,0,0,0,0,0,0,0,-0.0369,-0.0369,-0.0373,-0.0371,-0.0369,-0.0348,-0.0305,-0.0287,-0.0324,-0.0339,-0.0322,-0.0321,-0.0222,-0.0213,-0.0209,-0.0143,-0.0137,-0.0149,-0.0146,-0.0144,-0.0142,0,0,0,0,0,0,0,-0.037,-0.037,-0.038,-0.0373,-0.037,-0.035,-0.0348,-0.0301,-0.0282,-0.0337,-0.0335,-0.0334,-0.022,-0.0214,-0.0205,-0.0135,-0.0149,-0.0145,-0.0142,-0.014,-0.0039,-0.004,0,0,0,0,0,0,-0.0379,-0.0371,-0.038,-0.0379,-0.0369,-0.0351,-0.0349,-0.0354,-0.0285,-0.0275,-0.0335,-0.0333,-0.0224,-0.0211,-0.0199,-0.017,-0.0144,-0.0139,-0.0136,-0.0039,-0.0039,-0.004,0,0,0,0,0,0,-0.0379,-0.0381,-0.0382,-0.0375,-0.0374,-0.0353,-0.0359,-0.0354,-0.0348,-0.0285,-0.0272,-0.0334,-0.0222,-0.0207,-0.017,-0.0164,-0.0137,-0.0132,-0.0038,-0.0039,-0.004,-0.0114,0,0,0,0,0,0,-0.0379,-0.0381,-0.0387,-0.0376,-0.0375,-0.0384,-0.036,-0.0354,-0.035,-0.0346,-0.0279,-0.0265,-0.0221,-0.0178,-0.0165,-0.0156,-0.0128,-0.0038,-0.0039,-0.0039,-0.0111,-0.0117,-0.0123,0,0,0,0,0,-0.0379,-0.0392,-0.0387,-0.0388,-0.0384,-0.0385,-0.0383,-0.0363,-0.0351,-0.0353,-0.0314,-0.0267,-0.0173,-0.0175,-0.0159,-0.0148,-0.0037,-0.0038,-0.0039,-0.0109,-0.0116,-0.0123,0,0,0,0,0,0,-0.0389,-0.039,-0.0383,-0.0396,-0.0393,-0.0379,-0.0381,-0.0369,-0.0343,-0.0335,-0.0275,-0.0259,-0.0228,-0.0181,-0.0184,-0.0123,-0.0096,-0.0094,-0.0154,-0.016,-0.0166,-0.0163,-0.0124,0,0,0,0,0,-0.0396,-0.0406,-0.0401,-0.0412,-0.0413,-0.0398,-0.0396,-0.0385,-0.0363,-0.0351,-0.0309,-0.0259,-0.022,-0.0186,-0.0149,-0.0111,-0.0068,-0.0093,-0.0099,-0.0104,-0.0092,-0.0041,-0.0041,-0.0043,-0.0043,-0.0043,0,0,-0.0403,-0.0405,-0.041,-0.0415,-0.041,-0.0418,-0.0394,-0.0397,-0.0395,-0.0336,-0.0319,-0.0283,-0.022,-0.0188,-0.0167,-0.0143,-0.0084,-0.0105,-0.011,-0.0094,-0.0042,-0.0042,-0.0041,-0.0044,-0.0044,-0.0043,0,0,-0.043,-0.0426,-0.0446,-0.0446,-0.0447,-0.0435,-0.0439,-0.0428,-0.0414,-0.0398,-0.0358,-0.0322,-0.0261,-0.0215,-0.0183,-0.0193,-0.0128,-0.018,-0.0188,-0.014,-0.0139,-0.0138,-0.0099,-0.0093,-0.0169,-0.0169,-0.0169,0,-0.0438,-0.0463,-0.0451,-0.0471,-0.0472,-0.0446,-0.0464,-0.0448,-0.0425,-0.0407,-0.0399,-0.0318,-0.0271,-0.0216,-0.0223,-0.0204,-0.017,-0.0169,-0.0147,-0.0145,-0.0142,-0.0102,-0.0095,-0.0172,-0.0172,-0.0172,-0.0171,0,-0.0484,-0.0498,-0.0511,-0.0524,-0.052,-0.0532,-0.0511,-0.05,-0.0479,-0.0454,-0.0411,-0.0358,-0.0301,-0.0286,-0.0254,-0.0209,-0.0191,-0.0174,-0.0131,-0.0146,-0.0104,-0.0095,-0.0178,-0.0176,-0.0175,-0.0174,0,0,-0.0523,-0.054,-0.0546,-0.0555,-0.0549,-0.0553,-0.0542,-0.0522,-0.0506,-0.0472,-0.0444,-0.0384,-0.0348,-0.0309,-0.0264,-0.0217,-0.0181,-0.0187,-0.0183,-0.0152,-0.008,-0.0047,-0.0034,-0.0162,-0.016,-0.0159,-0.0064,0,-0.0564,-0.0613,-0.0601,-0.0628,-0.0648,-0.0611,-0.0602,-0.0572,-0.0535,-0.05,-0.043,-0.0391,-0.0357,-0.0331,-0.028,-0.0204,-0.0159,-0.0209,-0.0066,-0.0061,-0.0033,-0.0023,-0.0054,0.0031,-0.0055,-0.0053,-0.0052,0,-0.062,-0.0641,-0.0684,-0.0679,-0.0682,-0.0685,-0.0653,-0.0641,-0.0574,-0.0542,-0.048,-0.0425,-0.0345,-0.0325,-0.019,-0.0224,-0.0157,-0.01,-0.0095,-0.0026,-0.0012,0.0037,0.0051,-0.0037,-0.0038,-0.0039,-0.004,0,-0.0669,-0.0695,-0.0729,-0.0733,-0.0725,-0.0722,-0.0708,-0.0656,-0.0637,-0.0565,-0.0537,-0.0437,-0.0383,-0.0285,-0.0163,-0.0175,-0.0018,-0.0019,0.0074,0.0077,0.0102,0.0105,0.0073,0.0073,0.0073,0.0073,0.0072,0,-0.0725,-0.0748,-0.0756,-0.0776,-0.0797,-0.0769,-0.0769,-0.0736,-0.0682,-0.0653,-0.0563,-0.0509,-0.0369,-0.0261,-0.0163,-0.0008,-0.0012,0.0085,0.0112,0.0073,0.0072,0.0057,0.0053,0.0076,0.0076,0.0075,0.0074,0,-0.0778,-0.0787,-0.0822,-0.0825,-0.0826,-0.0842,-0.0823,-0.0817,-0.0757,-0.0714,-0.0692,-0.0554,-0.0402,-0.026,-0.0086,-0.0002,0.0134,0.0185,0.0128,0.0146,0.0193,0.0185,0.03,0.0302,0.0304,0.0306,0.0307,0,-0.0812,-0.0839,-0.0867,-0.0893,-0.0897,-0.0912,-0.0919,-0.0867,-0.0849,-0.0735,-0.0712,-0.0554,-0.0425,-0.0155,0.0016,0.0205,0.0197,0.028,0.0258,0.0206,0.022,0.0209,0.0199,0.0253,0.0253,0.0254,0.0254,0,-0.0863,-0.0875,-0.0904,-0.0961,-0.0983,-0.1003,-0.0998,-0.099,-0.0914,-0.0849,-0.0722,-0.0605,-0.0338,-0.0114,0.0127,0.0223,0.0248,0.0299,0.0277,0.0198,0.0169,0.018,0.017,0.0259,0.0259,0.0259,0.0258,0.0258,-0.0894,-0.0934,-0.0976,-0.1023,-0.1054,-0.1076,-0.1077,-0.104,-0.0989,-0.0855,-0.0741,-0.0538,-0.0323,0.0034,0.0197,0.0332,0.0326,0.0356,0.035,0.0346,0.0322,0.0297,0.0407,0.0407,0.0407,0.0407,0.0408,0,-0.0934,-0.0978,-0.1032,-0.1086,-0.1123,-0.1123,-0.1114,-0.1078,-0.0999,-0.0846,-0.0692,-0.044,-0.0182,0.0031,0.0258,0.0399,0.0364,0.0412,0.0342,0.0336,0.0332,0.0304,0.0386,0.0386,0.0387,0.0387,0,0,-0.0957,-0.102,-0.105,-0.1123,-0.1158,-0.1176,-0.1163,-0.108,-0.0961,-0.0786,-0.0624,-0.0415,-0.0156,0.0005,0.0177,0.0294,0.0273,0.0293,0.0294,0.0186,0.018,0.0284,0.0233,0,0,0,0,0]}],[{"header":{"parameterUnit":"m.s-1","parameterCategory":2,"la1":30.2991,"la2":30.254,"lo1":-89.0895,"lo2":-89.0444,"dy":0.0017,"dx":0.0017,"nx":28,"ny":28,"refTime":"2024-03-22T09:00:00:Z","depth":"4","parameterNumber":2,"parameterNumberName":"U-component_of_CURRENTS"},"data":[0,0,0,0,0,0,0,0,0,0,0,0,0,0,0,0,0,0,0,0,0,0,0,0,0,0,0,0,0,0,0,0,0,0,0,0,0,0,0,0,0,0,0,0,0,0,0,0,0,0,0,0,0,0,0,0,0,0,-0.1505,-0.1505,0,-0.1554,-0.1554,-0.1555,-0.1597,-0.1598,-0.1598,-0.1598,-0.167,-0.1672,-0.1673,0,0,0,0,0,0,0,0,0,0,0,0,0,-0.1452,-0.1452,-0.1505,-0.1505,-0.1506,-0.1554,-0.1554,-0.1555,-0.1597,-0.1598,-0.1598,-0.1599,-0.167,-0.1671,-0.1673,0,0,0,0,0,0,0,0,0,0,0,0,0,-0.1485,-0.1453,-0.1505,-0.1533,-0.1536,-0.1554,-0.1554,-0.1555,-0.1597,-0.1598,-0.1598,-0.1599,-0.1669,-0.1671,-0.1673,-0.1672,0,0,-0.168,-0.1681,0,0,0,0,0,0,0,0,-0.1483,-0.1487,-0.1528,-0.1531,-0.1534,-0.157,-0.1562,-0.1595,-0.1597,-0.1573,-0.1599,-0.1599,-0.1639,-0.1643,-0.165,-0.1675,-0.1678,-0.168,-0.1681,-0.1682,-0.1683,0,0,0,0,0,0,0,-0.148,-0.1485,-0.1524,-0.1529,-0.1533,-0.1545,-0.155,-0.1568,-0.1601,-0.1575,-0.1579,-0.1584,-0.1641,-0.1648,-0.1652,-0.1679,-0.168,-0.1682,-0.1683,-0.1684,-0.1776,-0.1777,0,0,0,0,0,0,-0.1474,-0.1483,-0.1522,-0.1525,-0.151,-0.1545,-0.1551,-0.1558,-0.1601,-0.1608,-0.1584,-0.1586,-0.1644,-0.1649,-0.1655,-0.1714,-0.1682,-0.1684,-0.1686,-0.1775,-0.1776,-0.1778,0,0,0,0,0,0,-0.1473,-0.1477,-0.152,-0.1505,-0.1512,-0.1545,-0.1552,-0.1558,-0.1593,-0.1607,-0.1615,-0.1615,-0.1645,-0.1652,-0.1699,-0.1715,-0.1685,-0.1687,-0.1774,-0.1775,-0.1777,-0.1795,0,0,0,0,0,0,-0.1471,-0.1476,-0.1492,-0.1505,-0.1512,-0.1549,-0.1552,-0.1559,-0.1594,-0.1598,-0.1636,-0.1641,-0.1646,-0.1695,-0.1701,-0.1718,-0.1689,-0.1772,-0.1774,-0.1776,-0.1793,-0.1797,-0.1801,0,0,0,0,0,-0.1469,-0.1483,-0.1492,-0.1498,-0.1528,-0.155,-0.1555,-0.1581,-0.1595,-0.1614,-0.1643,-0.1642,-0.1713,-0.1698,-0.1704,-0.1722,-0.1771,-0.1774,-0.1776,-0.1792,-0.1797,-0.1801,0,0,0,0,0,0,-0.147,-0.1489,-0.1499,-0.152,-0.1542,-0.1557,-0.158,-0.1595,-0.1633,-0.1647,-0.1659,-0.1668,-0.1711,-0.1719,-0.1703,-0.1756,-0.174,-0.1744,-0.175,-0.1755,-0.1759,-0.1751,-0.1691,0,0,0,0,0,-0.1475,-0.1492,-0.1511,-0.153,-0.1543,-0.1566,-0.1584,-0.1602,-0.1629,-0.1648,-0.1673,-0.1701,-0.1721,-0.1742,-0.1761,-0.1795,-0.1778,-0.181,-0.1814,-0.1817,-0.1816,-0.1801,-0.1803,-0.1786,-0.1786,-0.1786,0,0,-0.1482,-0.1494,-0.1506,-0.1532,-0.1552,-0.1579,-0.158,-0.1614,-0.1643,-0.1649,-0.1705,-0.1718,-0.1734,-0.1769,-0.1789,-0.1781,-0.1815,-0.182,-0.1823,-0.182,-0.1804,-0.1805,-0.1806,-0.1788,-0.1788,-0.1787,0,0,-0.1498,-0.1515,-0.1537,-0.1558,-0.1592,-0.1604,-0.162,-0.1653,-0.1677,-0.1725,-0.1731,-0.1754,-0.1803,-0.1804,-0.1812,-0.1851,-0.1835,-0.1867,-0.1882,-0.1868,-0.1868,-0.1869,-0.1851,-0.185,-0.187,-0.187,-0.187,0,-0.1508,-0.1532,-0.1548,-0.1575,-0.1596,-0.162,-0.1649,-0.1675,-0.1722,-0.1737,-0.1752,-0.1801,-0.1814,-0.1833,-0.1848,-0.1857,-0.1849,-0.1861,-0.1871,-0.1871,-0.187,-0.1852,-0.1851,-0.1871,-0.1871,-0.1871,-0.1871,0,-0.1532,-0.1565,-0.158,-0.162,-0.1646,-0.1674,-0.1706,-0.174,-0.1772,-0.1789,-0.1828,-0.1841,-0.1864,-0.1873,-0.1877,-0.1886,-0.188,-0.1873,-0.1852,-0.1873,-0.1853,-0.1851,-0.1873,-0.1872,-0.1872,-0.1872,0,0,-0.1509,-0.1583,-0.159,-0.1618,-0.1671,-0.1689,-0.174,-0.1775,-0.1802,-0.1843,-0.1869,-0.1897,-0.1897,-0.1906,-0.1905,-0.1897,-0.1889,-0.1893,-0.1892,-0.1865,-0.1859,-0.1746,-0.1732,-0.1886,-0.1886,-0.1886,-0.1845,0,-0.1522,-0.1577,-0.1613,-0.1668,-0.1695,-0.1735,-0.1775,-0.1814,-0.1846,-0.1879,-0.1886,-0.1913,-0.1912,-0.1922,-0.1915,-0.1899,-0.1885,-0.1901,-0.1853,-0.1852,-0.1739,-0.1726,-0.1885,-0.1843,-0.1843,-0.1842,-0.1842,0,-0.152,-0.1558,-0.1616,-0.1684,-0.17,-0.1741,-0.1792,-0.1834,-0.1878,-0.1904,-0.1925,-0.1935,-0.1939,-0.1932,-0.1904,-0.1919,-0.1893,-0.1873,-0.1871,-0.1754,-0.1733,-0.182,-0.1837,-0.1838,-0.1838,-0.1838,-0.1839,0,-0.1467,-0.1552,-0.1596,-0.1621,-0.1706,-0.1741,-0.1785,-0.1839,-0.1868,-0.1917,-0.1935,-0.1945,-0.1949,-0.1926,-0.1893,-0.1904,-0.185,-0.1854,-0.1724,-0.1716,-0.1824,-0.1824,-0.1822,-0.1822,-0.1822,-0.1822,-0.1822,0,-0.1438,-0.1476,-0.1582,-0.1602,-0.165,-0.1722,-0.1767,-0.1815,-0.1872,-0.1887,-0.1942,-0.1935,-0.1948,-0.1922,-0.1893,-0.179,-0.1845,-0.1713,-0.169,-0.1835,-0.1836,-0.1822,-0.1823,-0.182,-0.1821,-0.1821,-0.1821,0,-0.1364,-0.144,-0.1493,-0.1594,-0.1628,-0.166,-0.1753,-0.1776,-0.185,-0.1871,-0.1887,-0.1926,-0.1883,-0.1874,-0.1826,-0.1767,-0.1696,-0.1646,-0.1797,-0.1786,-0.1577,-0.158,-0.1494,-0.1489,-0.1486,-0.1482,-0.148,0,-0.1327,-0.1351,-0.1465,-0.1497,-0.1547,-0.1612,-0.1649,-0.1746,-0.1769,-0.1837,-0.1829,-0.1828,-0.183,-0.1667,-0.168,-0.1601,-0.1582,-0.1548,-0.1563,-0.1553,-0.154,-0.1549,-0.1556,-0.1474,-0.1473,-0.1472,-0.1471,0,-0.1243,-0.1299,-0.1341,-0.1407,-0.1462,-0.1506,-0.1572,-0.1576,-0.1669,-0.1758,-0.171,-0.1673,-0.1619,-0.1571,-0.1517,-0.1467,-0.1574,-0.1508,-0.1516,-0.153,-0.1528,-0.152,-0.1532,-0.1457,-0.1459,-0.146,-0.1461,0,-0.1175,-0.1184,-0.125,-0.129,-0.1359,-0.137,-0.1423,-0.1445,-0.1479,-0.1575,-0.1547,-0.1549,-0.1593,-0.1498,-0.1448,-0.1387,-0.1369,-0.1334,-0.1351,-0.1366,-0.1342,-0.1322,-0.1152,0,0,0,0,0,-0.1097,-0.1094,-0.1126,-0.1163,-0.1226,-0.1258,-0.1354,-0.1412,-0.1509,-0.1437,-0.149,-0.1432,-0.1356,-0.1364,-0.1268,-0.138,-0.1371,-0.1266,-0.1341,-0.1383,-0.1399,-0.1381,0,0,0,0,0,0,-0.1046,-0.1073,-0.1078,-0.104,-0.1039,-0.1086,-0.1139,-0.1212,-0.1188,-0.1294,-0.1256,-0.134,-0.1282,-0.1366,-0.1229,-0.1231,-0.1251,-0.1285,-0.1281,-0.1375,-0.1389,-0.1401,-0.1388,0,0,0,0,0]},{"header":{"parameterUnit":"m.s-1","parameterCategory":2,"la1":30.2991,"la2":30.254,"lo1":-89.0895,"lo2":-89.0444,"dy":0.0017,"dx":0.0017,"nx":28,"ny":28,"refTime":"2024-03-22T09:00:00:Z","depth":"4","parameterNumber":3,"parameterNumberName":"V-component_of_CURRENTS"},"data":[0,0,0,0,0,0,0,0,0,0,0,0,0,0,0,0,0,0,0,0,0,0,0,0,0,0,0,0,0,0,0,0,0,0,0,0,0,0,0,0,0,0,0,0,0,0,0,0,0,0,0,0,0,0,0,0,0,0,-0.031,-0.031,0,-0.0299,-0.0298,-0.0298,-0.0275,-0.0274,-0.0274,-0.0274,-0.0174,-0.0172,-0.0169,0,0,0,0,0,0,0,0,0,0,0,0,0,-0.0283,-0.0283,-0.031,-0.031,-0.031,-0.0299,-0.0298,-0.0298,-0.0275,-0.0274,-0.0274,-0.0274,-0.0175,-0.0172,-0.0169,0,0,0,0,0,0,0,0,0,0,0,0,0,-0.0284,-0.0283,-0.031,-0.0298,-0.0297,-0.0299,-0.0298,-0.0298,-0.0275,-0.0274,-0.0274,-0.0274,-0.0176,-0.0172,-0.0169,-0.0156,0,0,-0.0158,-0.0156,0,0,0,0,0,0,0,0,-0.0284,-0.0284,-0.03,-0.0299,-0.0298,-0.0289,-0.0252,-0.0247,-0.0275,-0.0282,-0.0274,-0.0273,-0.0206,-0.02,-0.0197,-0.0151,-0.0147,-0.0157,-0.0155,-0.0154,-0.0153,0,0,0,0,0,0,0,-0.0284,-0.0285,-0.0304,-0.03,-0.0299,-0.0284,-0.0284,-0.0251,-0.0243,-0.0281,-0.028,-0.0281,-0.0204,-0.0201,-0.0195,-0.0146,-0.0158,-0.0154,-0.0152,-0.0151,-0.008,-0.008,0,0,0,0,0,0,-0.0291,-0.0285,-0.0304,-0.0303,-0.0291,-0.0285,-0.0285,-0.0291,-0.0246,-0.0239,-0.0282,-0.028,-0.0207,-0.0199,-0.0191,-0.0177,-0.0154,-0.015,-0.0148,-0.008,-0.008,-0.008,0,0,0,0,0,0,-0.029,-0.0293,-0.0304,-0.0295,-0.0295,-0.0286,-0.0293,-0.0291,-0.0291,-0.0248,-0.0239,-0.0285,-0.0207,-0.0196,-0.0174,-0.0172,-0.0149,-0.0146,-0.008,-0.008,-0.008,-0.0145,0,0,0,0,0,0,-0.029,-0.0293,-0.0301,-0.0296,-0.0296,-0.0312,-0.0294,-0.0291,-0.0294,-0.0292,-0.0247,-0.0238,-0.0205,-0.0179,-0.017,-0.0167,-0.0143,-0.0079,-0.008,-0.008,-0.0143,-0.0148,-0.0152,0,0,0,0,0,-0.0289,-0.0304,-0.0301,-0.0304,-0.0308,-0.0313,-0.0312,-0.0302,-0.0294,-0.03,-0.0273,-0.0239,-0.0175,-0.0177,-0.0166,-0.0162,-0.0079,-0.008,-0.008,-0.0141,-0.0147,-0.0152,0,0,0,0,0,0,-0.0297,-0.0303,-0.03,-0.0316,-0.0318,-0.031,-0.0317,-0.0309,-0.0294,-0.029,-0.0247,-0.0236,-0.0218,-0.0181,-0.0185,-0.0143,-0.0119,-0.0118,-0.0169,-0.0174,-0.0179,-0.0176,-0.014,0,0,0,0,0,-0.0303,-0.0317,-0.0317,-0.0331,-0.0334,-0.0326,-0.0328,-0.0322,-0.0309,-0.0303,-0.0275,-0.0239,-0.0211,-0.0188,-0.0162,-0.0137,-0.0097,-0.0125,-0.013,-0.0134,-0.0124,-0.0075,-0.0075,-0.0082,-0.0082,-0.0082,0,0,-0.0311,-0.0316,-0.0324,-0.0333,-0.0334,-0.0343,-0.0326,-0.0335,-0.0337,-0.0292,-0.0287,-0.0261,-0.0212,-0.0192,-0.0178,-0.0159,-0.0113,-0.0134,-0.0139,-0.0126,-0.0076,-0.0075,-0.0074,-0.0083,-0.0083,-0.0083,0,0,-0.0335,-0.0338,-0.0358,-0.0362,-0.0369,-0.0362,-0.0367,-0.0364,-0.0357,-0.0351,-0.0321,-0.0295,-0.0254,-0.0218,-0.0193,-0.0203,-0.0149,-0.0194,-0.0203,-0.0157,-0.0155,-0.0154,-0.0115,-0.0109,-0.0185,-0.0186,-0.0186,0,-0.0344,-0.0367,-0.0364,-0.0382,-0.0387,-0.0373,-0.039,-0.0382,-0.0372,-0.036,-0.0357,-0.0297,-0.0263,-0.022,-0.0227,-0.0212,-0.018,-0.0188,-0.0163,-0.016,-0.0157,-0.0118,-0.0111,-0.0189,-0.0188,-0.0188,-0.0188,0,-0.0382,-0.0398,-0.0411,-0.0427,-0.043,-0.0444,-0.0433,-0.0431,-0.042,-0.0404,-0.0375,-0.0335,-0.0291,-0.028,-0.0256,-0.0217,-0.02,-0.0185,-0.0151,-0.0161,-0.0118,-0.011,-0.0193,-0.0192,-0.0191,-0.0191,0,0,-0.041,-0.0434,-0.044,-0.0451,-0.0455,-0.0462,-0.0462,-0.0452,-0.0444,-0.0424,-0.0403,-0.0361,-0.0333,-0.0302,-0.0266,-0.0223,-0.0187,-0.0197,-0.0193,-0.0162,-0.0088,-0.0097,-0.0088,-0.0169,-0.0168,-0.0166,-0.0071,0,-0.0442,-0.0486,-0.0483,-0.0512,-0.0531,-0.0511,-0.051,-0.0495,-0.0471,-0.0448,-0.0394,-0.0365,-0.0341,-0.0321,-0.0276,-0.0208,-0.0165,-0.0214,-0.0078,-0.0074,-0.0084,-0.0079,-0.0162,-0.0064,-0.0062,-0.0061,-0.006,0,-0.0482,-0.0504,-0.0546,-0.0553,-0.0558,-0.0569,-0.0556,-0.0551,-0.0505,-0.0483,-0.0436,-0.0392,-0.0325,-0.031,-0.0189,-0.0221,-0.0159,-0.0108,-0.0103,-0.0078,-0.0067,-0.0047,-0.0043,-0.0045,-0.0046,-0.0047,-0.0048,0,-0.0512,-0.0544,-0.0578,-0.0586,-0.0593,-0.06,-0.0598,-0.0566,-0.0556,-0.0503,-0.0481,-0.0397,-0.0352,-0.0263,-0.0161,-0.017,-0.0028,-0.0025,0.0027,0.0027,0.0035,0.0033,0.0061,0.0061,0.0061,0.006,0.006,0,-0.0545,-0.0572,-0.0599,-0.0618,-0.0647,-0.0637,-0.0649,-0.0629,-0.0593,-0.0573,-0.0503,-0.0457,-0.0338,-0.0244,-0.0156,-0.0036,-0.002,0.0033,0.0055,0.0003,-0.0003,0.0041,0.0037,0.0064,0.0063,0.0062,0.0062,0,-0.0571,-0.0592,-0.0632,-0.0656,-0.0666,-0.0688,-0.0696,-0.0694,-0.0655,-0.0623,-0.0606,-0.0493,-0.0367,-0.0247,-0.0091,-0.0032,0.0082,0.0119,0.0055,0.0071,0.0105,0.0097,0.019,0.019,0.0191,0.0191,0.0191,0,-0.0587,-0.0614,-0.0667,-0.0698,-0.0714,-0.0745,-0.076,-0.0734,-0.0721,-0.0638,-0.0614,-0.0492,-0.0408,-0.0186,-0.007,0.0099,0.0115,0.0168,0.0136,0.0108,0.012,0.0112,0.0103,0.0192,0.0192,0.0192,0.0193,0,-0.0609,-0.0636,-0.0669,-0.0737,-0.0774,-0.0803,-0.0815,-0.0805,-0.0757,-0.0725,-0.0601,-0.0481,-0.0337,-0.0176,-0.0047,0.0071,0.013,0.0173,0.0173,0.0143,0.0112,0.0122,0.0113,0.0194,0.0194,0.0194,0.0194,0,-0.0623,-0.0658,-0.0712,-0.0763,-0.0816,-0.084,-0.0845,-0.0806,-0.0779,-0.0674,-0.0632,-0.0471,-0.0371,-0.0189,-0.0068,0.0044,0.0066,0.0089,0.0094,0.0093,0.0028,-0.0028,0.0038,0,0,0,0,0,-0.0633,-0.0674,-0.073,-0.0787,-0.0839,-0.0862,-0.0867,-0.0855,-0.0804,-0.0719,-0.067,-0.053,-0.0325,-0.0226,-0.0114,-0.0082,0.0064,0.005,0.0087,0.0203,0.0202,0.0139,0,0,0,0,0,0,-0.0642,-0.0701,-0.073,-0.079,-0.0829,-0.0874,-0.0878,-0.0846,-0.0781,-0.0714,-0.0596,-0.0519,-0.0316,-0.039,-0.0116,-0.0081,-0.0046,0.0152,0.0154,0.0205,0.0203,0.0201,0.0137,0,0,0,0,0]}]]